TimeCDT,TemperatureF,Dew PointF,Humidity,Sea Level PressureIn,VisibilityMPH,Wind Direction,Wind SpeedMPH,Gust SpeedMPH,PrecipitationIn,Events,Conditions,WindDirDegrees,DateUTC
12:56 AM,73.0,70.0,90,29.99,10.0,Calm,Calm,-,N/A,,Clear,0,2013-09-07 05:56:00
1:56 AM,71.1,69.1,93,29.98,10.0,Calm,Calm,-,N/A,,Clear,0,2013-09-07 06:56:00
2:56 AM,71.1,69.1,93,29.98,10.0,Calm,Calm,-,N/A,,Clear,0,2013-09-07 07:56:00
3:56 AM,70.0,68.0,93,29.98,10.0,Calm,Calm,-,N/A,,Clear,0,2013-09-07 08:56:00
4:56 AM,70.0,68.0,93,30.00,10.0,Calm,Calm,-,N/A,,Clear,0,2013-09-07 09:56:00
5:56 AM,70.0,68.0,93,30.01,10.0,Calm,Calm,-,N/A,,Clear,0,2013-09-07 10:56:00
6:56 AM,69.1,66.9,93,30.03,8.0,Calm,Calm,-,N/A,,Clear,0,2013-09-07 11:56:00
7:56 AM,73.0,70.0,90,30.04,10.0,Calm,Calm,-,N/A,,Clear,0,2013-09-07 12:56:00
8:56 AM,81.0,73.0,77,30.04,10.0,Calm,Calm,-,0.01,,Clear,0,2013-09-07 13:56:00
9:56 AM,84.9,73.0,67,30.05,10.0,Calm,Calm,-,N/A,,Clear,0,2013-09-07 14:56:00
10:56 AM,86.0,71.1,61,30.05,10.0,Calm,Calm,-,N/A,,Partly Cloudy,0,2013-09-07 15:56:00
11:56 AM,87.1,70.0,57,30.04,10.0,Calm,Calm,-,N/A,,Partly Cloudy,0,2013-09-07 16:56:00
12:56 PM,91.0,68.0,47,30.02,10.0,Variable,3.5,-,N/A,,Scattered Clouds,0,2013-09-07 17:56:00
1:56 PM,93.9,68.0,43,29.99,10.0,Calm,Calm,-,N/A,,Mostly Cloudy,0,2013-09-07 18:56:00
2:56 PM,91.9,64.9,41,29.96,10.0,East,3.5,-,N/A,,Partly Cloudy,80,2013-09-07 19:56:00
3:56 PM,95.0,63.0,34,29.93,10.0,Variable,5.8,-,N/A,,Mostly Cloudy,0,2013-09-07 20:56:00
4:56 PM,95.0,63.0,34,29.91,10.0,NE,3.5,-,N/A,,Mostly Cloudy,50,2013-09-07 21:56:00
5:49 PM,84.2,66.2,55,29.97,10.0,SSW,8.1,-,N/A,Thunderstorm,Thunderstorm,210,2013-09-07 22:49:00
5:56 PM,82.9,66.9,58,29.96,10.0,SSW,4.6,-,N/A,Thunderstorm,Thunderstorm,210,2013-09-07 22:56:00
6:19 PM,82.4,66.2,58,29.97,10.0,Variable,3.5,-,N/A,,Clear,0,2013-09-07 23:19:00
6:56 PM,80.1,66.9,64,29.96,10.0,Calm,Calm,-,N/A,,Clear,0,2013-09-07 23:56:00
7:56 PM,77.0,66.9,71,29.97,10.0,South,4.6,-,N/A,,Clear,170,2013-09-08 00:56:00
8:56 PM,73.9,66.9,79,29.98,10.0,South,3.5,-,N/A,,Clear,190,2013-09-08 01:56:00
9:56 PM,73.0,66.9,81,29.99,10.0,Calm,Calm,-,N/A,,Clear,0,2013-09-08 02:56:00
10:56 PM,73.0,69.1,87,29.98,10.0,Calm,Calm,-,N/A,,Clear,0,2013-09-08 03:56:00
11:56 PM,73.0,70.0,90,29.98,10.0,Calm,Calm,-,N/A,,Clear,0,2013-09-08 04:56:00